Regional Weather Roundup
Issued by NWS Sterling, VA

Home | Current Version | Previous Version | Graphics & Text | Print | Product List | Glossary On
Versions: 1 2 3 4 5 6 7 8 9 10 11 12 13 14 15 16 17 18 19 20 21 22 23 24 25 26 27
000
ASUS41 KLWX 220010
RWRLWX

REGIONAL WEATHER ROUNDUP
NATIONAL WEATHER SERVICE BALTIMORE MD/WASHINGTON DC
800 PM EDT TUE MAR 21 2017

Note: "FAIR" indicates few or no clouds below 12,000 feet
with no significant weather and/or obstructions to visibility.
 TC=TEMPERATURE CELSIUS

 * =Non NWS site. Station does not report precipitation (e.g. rain,
    snow, etc.), thunder, or fog.

DCZ001-MDZ009-015-VAZ040>042-051-053>054-220100-
WASHINGTON METRO

CITY           SKY/WX    TMP DP  RH WIND       PRES   REMARKS
WASHINGTON NAT CLOUDY    58  41  53 N8        29.94S
DULLES         CLOUDY    56  37  49 NW6       29.94S
ANDREWS AFB    CLOUDY    57  38  50 CALM      29.93R
FT BELVOIR     PTCLDY    59  40  48 CALM      29.93S
QUANTICO       MOCLDY    56  44  64 CALM      29.95R
COLLEGE PARK*  PTCLDY    52  37  58 CALM      29.94R
LEESBURG*      CLOUDY    57  41  54 N7        29.95R
MANASSAS*      MOCLDY    56  39  53 N5        29.95R
GAITHERSBURG*  PTCLDY    52  36  54 CALM      29.98R

$$

MDZ006>007-011-014-220100-
BALTIMORE METRO

CITY           SKY/WX    TMP DP  RH WIND       PRES   REMARKS
BWI AIRPORT    CLOUDY    55  38  52 CALM      29.93R
MD SCIENCE CTR   N/A     59  35  40 MISG      29.93R
MARTIN STATE   MOCLDY    57  41  54 W8G16     29.94R
ANNAPOLIS      CLOUDY    50  40  68 CALM      29.93R
FORT MEADE*    CLOUDY    52  37  58 CALM      29.96S

$$

MDZ012-015-019>023-220100-
MARYLAND EASTERN SHORE

CITY           SKY/WX    TMP DP  RH WIND       PRES   REMARKS
OCEAN CITY     PTCLDY    45  35  68 SW6       29.94R
SALISBURY      PTCLDY    50  41  71 CALM      29.93R
BAY BRIDGE AP* CLOUDY    46  41  81 CALM      29.94R HAZE
CAMBRIDGE*     MOCLDY    50  43  76 SW5       29.94R
EASTON*        MOCLDY    54  39  58 CALM      29.97R

$$

MDZ017>025-220100-
SOUTHERN MARYLAND

CITY           SKY/WX    TMP DP  RH WIND       PRES   REMARKS
PATUXENT RIVER MOCLDY    46  42  86 SW3       29.93S
ST INIGOES     CLOUDY    49  42  77 CALM      29.94R
LEONARDTOWN*   CLOUDY    50  41  71 CALM      29.95S

$$

MDZ003>005-220100-
NORTH CENTRAL MARYLAND

CITY           SKY/WX    TMP DP  RH WIND       PRES   REMARKS
FREDERICK*     CLEAR     55  43  62 CALM      29.96S
HAGERSTOWN APT CLOUDY    56  37  49 SW7       29.92S
WESTMINSTER*   CLOUDY    54  37  54 W7        29.92S

$$

MDZ501>502-220100-
WESTERN MARYLAND

CITY           SKY/WX    TMP DP  RH WIND       PRES   REMARKS
OAKLAND*       MOCLDY    43  37  81 W10G20    29.98R
CUMBERLAND*    PTCLDY    54  36  50 SW7       29.99S

$$

VAZ025>031-220100-
SHENANDOAH VALLEY

CITY           SKY/WX    TMP DP  RH WIND       PRES   REMARKS
WINCHESTER*    CLOUDY    54  36  50 W5        29.95S
FRONT ROYAL*   MOCLDY    57  37  47 NW6       29.94R
LURAY*         PTCLDY    57  43  58 N3        29.95R
NEW MARKET*    MOCLDY    58  32  37 N7        29.95R
STAUNTON*      CLEAR     58  44  58 N7        29.96R
WAYNESBORO*    CLEAR     59  47  64 N3        29.94R

$$

WVZ021-048>050-054>055-220100-
EASTERN WEST VIRGINIA PANHANDLE

CITY           SKY/WX    TMP DP  RH WIND       PRES   REMARKS
MARTINSBURG    CLOUDY    52  38  58 W10       29.93S
PETERSBURG*    CLOUDY    53  41  63 W7        30.00R

$$

VAZ036>039-050-220100-
CENTRAL FOOTHILLS

CITY           SKY/WX    TMP DP  RH WIND       PRES   REMARKS
CHARLOTTESVILL CLEAR     62  45  53 E3        29.92R
CULPEPER*      PTCLDY    56  43  62 CALM      29.95R
ORANGE*        CLEAR     52  45  76 CALM      29.95R
GORDONSVILLE*  CLEAR     55  46  69 CALM      29.93S
WARRENTON*     CLEAR     56  37  50 N3        29.94R

$$

VAZ055>057-220100-
NORTH AND CENTRAL PIEDMONT

CITY           SKY/WX    TMP DP  RH WIND       PRES   REMARKS
FREDERICKSBRG* CLEAR     56  45  65 CALM      29.94R
STAFFORD*      CLEAR     55  43  63 CALM      29.98R

$$

NCZ024-NYZ072-PAZ021-071-VAZ022-071-220100-
OTHER REGIONAL OBSERVATIONS

CITY           SKY/WX    TMP DP  RH WIND       PRES   REMARKS
NEW YORK CITY  CLEAR     55  25  31 NW9       29.87R
PHILADELPHIA   MOCLDY    55  36  48 W9        29.90R
PITTSBURGH     CLOUDY    53  26  35 NW22      29.99R
ROANOKE        CLEAR     61  42  49 NW10      29.96F
RICHMOND       CLOUDY    58  47  66 NE7       29.93S
RALEIGH        PTCLDY    68  49  50 NE6       29.89R

$$

ANZ530>537-220100-
MARINE OBSERVATIONS

STATION/POSITION TIME  TEMP    WIND        PRES
                       AIR SEA DIR/SP/G
                 (UTC) (F)     (DEG/KT/KT) (MB)
THOMAS PT LIGHT  0000   51 43  240/  5/  5   N/A
BALT KEY BRIDGE  2348   57     290/  7/  8 1013.6R
COVE POINT       2348   51     210/  6/  6 1014.3R
LEWISETTA        2348   50 49  220/  2/  2 1013.7R
SOLOMONS ISLAND  2348          120/  2/  3   N/A

$$





USA.gov is the U.S. government's official web portal to all federal, state and local government web resources and services.